Flag for U.S.A. Weather past 2 weeks in San Luis Obispo, California, U.S.A.

Now
56 °F

Sunny.


Feels Like: 56 °F
Forecast: 43 / 78 °F
Wind: 3 mph from Southeast

Location: San Luis Obispo County-Mc Chesney Field

Current Time: Jan 25, 2015 at 9:22:53 AM

Latest Report: Jan 25, 2015 at 8:56 AM


Visibility: 10 mi

Pressure: 30.05 "Hg

Humidity: 51%

Dew point: 38 °F

Location of San Luis ObispoLocation

Historic Weather in San Luis Obispo — Graph

°F

San Luis Obispo temperature yesterday

Maximum temperature yesterday: 79 °F (at 2:56 PM)
Minimum temperature yesterday: 40 °F (at 5:56 AM)
Average temperature yesterday: 57 °F

Past Weeks' High & Low Weather Summary

 TemperatureHumidityPressure
High79 °F (Jan 24, 2:56 PM)100% (Jan 11, 11:56 PM)30.28 "Hg (Jan 11, 11:56 PM)
Low36 °F (Jan 23, 4:56 AM)21% (Jan 23, 12:56 PM)29.93 "Hg (Jan 10, 1:56 PM)
Average55 °F68%30.13 "Hg
* Reported Jan 10 7:56 AM — Jan 25 7:56 AM, San Luis Obispo, Weather by CustomWeather, © 2014

Note: Actual official high and low records may vary slightly from our data, if they occured in-between our weather recording intervals... More about our weather records

Advertising

San Luis Obispo weather history for previous 24 hours

 ConditionsComfort  
Time TempWeatherWind HumidityBarometerVisibility
7:56 AM
Jan 25
47 °FSunny.6 mph59%30.05 "Hg10 mi
6:56 AM44 °FClear.6 mph60%30.05 "Hg10 mi
5:56 AM41 °FClear.8 mph74%30.04 "Hg10 mi
4:56 AM43 °FClear.No wind71%30.04 "Hg10 mi
3:56 AM42 °FClear.6 mph73%30.05 "Hg10 mi
2:56 AM43 °FClear.No wind74%30.06 "Hg10 mi
1:56 AM43 °FClear.No wind76%30.07 "Hg10 mi
12:56 AM44 °FClear.7 mph76%30.07 "Hg10 mi
11:56 PM
Jan 24
48 °FClear.3 mph71%30.09 "Hg10 mi
10:56 PM49 °FClear.3 mph71%30.09 "Hg10 mi
9:56 PM51 °FClear.3 mph69%30.09 "Hg10 mi
8:56 PM52 °FClear.No wind61%30.08 "Hg10 mi
7:56 PM55 °FClear.5 mph53%30.08 "Hg10 mi
6:56 PM57 °FClear.13 mph58%30.05 "Hg10 mi
5:56 PM67 °FClear.6 mph41%30.03 "Hg10 mi
4:56 PM72 °FSunny.No wind37%30.03 "Hg10 mi
3:56 PM78 °FSunny.8 mph28%30.02 "Hg10 mi
2:56 PM79 °FSunny.10 mph24%30.02 "Hg10 mi
1:56 PM78 °FSunny.12 mph22%30.03 "Hg10 mi
12:56 PM77 °FSunny.9 mph23%30.06 "Hg10 mi
11:56 AM75 °FSunny.No wind22%30.09 "Hg10 mi
10:56 AM70 °FSunny.No wind29%30.13 "Hg10 mi
9:56 AM62 °FSunny.No wind38%30.14 "Hg10 mi
Weather by CustomWeather, © 2014

See weather overviewHow to use our weather pages